Time,TemperatureF,DewpointF,PressureIn,WindDirection,WindDirectionDegrees,WindSpeedMPH,WindSpeedGustMPH,Humidity,HourlyPrecipIn,Conditions,Clouds,dailyrainin,SoftwareType,DateUTC
2013-02-11 00:04:00,52.2,50.0,30.30,ENE,69,1.0,5.0,91,0.00,,,0.00,weatherlink.com 1.10,2013-02-11 05:04:00,
2013-02-11 00:18:00,52.5,50.0,30.30,East,86,3.0,8.0,91,0.00,,,0.00,weatherlink.com 1.10,2013-02-11 05:18:00,
2013-02-11 00:33:00,52.7,50.0,30.30,ESE,111,2.0,9.0,90,0.00,,,0.00,weatherlink.com 1.10,2013-02-11 05:33:00,
2013-02-11 00:48:00,53.1,50.0,30.30,ESE,118,3.0,7.0,90,0.00,,,0.00,weatherlink.com 1.10,2013-02-11 05:48:00,
2013-02-11 01:03:00,53.1,50.0,30.29,ESE,115,3.0,6.0,89,0.00,,,0.00,weatherlink.com 1.10,2013-02-11 06:03:00,
2013-02-11 01:19:00,52.7,50.0,30.29,ESE,111,2.0,7.0,90,0.00,,,0.00,weatherlink.com 1.10,2013-02-11 06:19:00,
2013-02-11 01:34:00,53.0,51.0,30.28,SE,129,3.0,4.0,91,0.00,,,0.00,weatherlink.com 1.10,2013-02-11 06:34:00,
2013-02-11 01:48:00,53.2,51.0,30.26,SSE,148,1.0,5.0,91,0.00,,,0.00,weatherlink.com 1.10,2013-02-11 06:48:00,
2013-02-11 02:04:00,53.4,51.0,30.22,South,184,11.0,15.0,92,0.01,,,0.01,weatherlink.com 1.10,2013-02-11 07:04:00,
2013-02-11 02:19:00,56.2,54.0,30.20,South,189,19.0,27.0,92,0.01,,,0.01,weatherlink.com 1.10,2013-02-11 07:19:00,
2013-02-11 02:34:00,57.8,55.0,30.19,SSW,209,17.0,28.0,89,0.02,,,0.02,weatherlink.com 1.10,2013-02-11 07:34:00,
2013-02-11 02:49:00,58.3,55.0,30.18,South,184,20.0,30.0,87,0.02,,,0.02,weatherlink.com 1.10,2013-02-11 07:49:00,
2013-02-11 03:04:00,58.4,55.0,30.18,South,190,22.0,29.0,87,0.01,,,0.02,weatherlink.com 1.10,2013-02-11 08:04:00,
2013-02-11 03:19:00,58.2,55.0,30.17,SW,229,22.0,26.0,88,0.01,,,0.02,weatherlink.com 1.10,2013-02-11 08:19:00,
2013-02-11 03:34:00,58.0,55.0,30.16,SSW,205,17.0,27.0,89,0.00,,,0.02,weatherlink.com 1.10,2013-02-11 08:34:00,
2013-02-11 03:49:00,58.2,55.0,30.16,SSW,198,12.0,24.0,88,0.00,,,0.02,weatherlink.com 1.10,2013-02-11 08:49:00,
2013-02-11 04:04:00,58.0,55.0,30.16,WSW,241,4.0,17.0,88,0.00,,,0.02,weatherlink.com 1.10,2013-02-11 09:04:00,
2013-02-11 04:19:00,58.3,55.0,30.16,SW,219,6.0,12.0,88,0.00,,,0.02,weatherlink.com 1.10,2013-02-11 09:19:00,
2013-02-11 04:34:00,58.8,55.0,30.16,WSW,255,11.0,15.0,87,0.00,,,0.02,weatherlink.com 1.10,2013-02-11 09:34:00,
2013-02-11 04:49:00,59.0,55.0,30.16,West,260,13.0,23.0,86,0.00,,,0.02,weatherlink.com 1.10,2013-02-11 09:49:00,
2013-02-11 05:04:00,58.8,55.0,30.16,WSW,239,19.0,26.0,86,0.01,,,0.03,weatherlink.com 1.10,2013-02-11 10:04:00,
2013-02-11 05:19:00,58.8,55.0,30.15,SW,218,14.0,23.0,88,0.01,,,0.03,weatherlink.com 1.10,2013-02-11 10:19:00,
2013-02-11 05:34:00,58.5,55.0,30.13,South,191,6.0,15.0,89,0.02,,,0.04,weatherlink.com 1.10,2013-02-11 10:34:00,
2013-02-11 05:49:00,58.7,56.0,30.12,SSW,208,8.0,18.0,89,0.02,,,0.04,weatherlink.com 1.10,2013-02-11 10:49:00,
2013-02-11 06:04:00,58.8,56.0,30.13,WSW,255,9.0,20.0,90,0.01,,,0.04,weatherlink.com 1.10,2013-02-11 11:04:00,
2013-02-11 06:19:00,59.5,56.0,30.14,SSW,203,16.0,28.0,88,0.01,,,0.04,weatherlink.com 1.10,2013-02-11 11:19:00,
2013-02-11 06:34:00,59.6,56.0,30.14,WSW,254,16.0,26.0,88,0.00,,,0.04,weatherlink.com 1.10,2013-02-11 11:34:00,
2013-02-11 06:49:00,59.1,56.0,30.13,SW,229,18.0,24.0,89,0.00,,,0.04,weatherlink.com 1.10,2013-02-11 11:49:00,
2013-02-11 07:04:00,59.0,56.0,30.13,WSW,243,20.0,23.0,89,0.01,,,0.05,weatherlink.com 1.10,2013-02-11 12:04:00,
2013-02-11 07:19:00,59.5,56.0,30.14,SW,223,14.0,24.0,88,0.01,,,0.05,weatherlink.com 1.10,2013-02-11 12:19:00,
2013-02-11 07:34:00,58.8,56.0,30.14,SW,226,6.0,14.0,89,0.01,,,0.05,weatherlink.com 1.10,2013-02-11 12:34:00,
2013-02-11 07:50:00,58.9,56.0,30.14,WSW,248,9.0,15.0,89,0.01,,,0.05,weatherlink.com 1.10,2013-02-11 12:50:00,
2013-02-11 08:04:00,58.9,56.0,30.15,WSW,254,4.0,17.0,89,0.00,,,0.05,weatherlink.com 1.10,2013-02-11 13:04:00,
2013-02-11 08:19:00,58.8,56.0,30.15,SW,217,8.0,17.0,89,0.00,,,0.05,weatherlink.com 1.10,2013-02-11 13:19:00,
2013-02-11 08:34:00,58.7,56.0,30.14,WSW,239,6.0,16.0,89,0.00,,,0.05,weatherlink.com 1.10,2013-02-11 13:34:00,
2013-02-11 08:49:00,58.4,56.0,30.14,SW,224,7.0,14.0,90,0.00,,,0.05,weatherlink.com 1.10,2013-02-11 13:49:00,
2013-02-11 09:04:00,57.6,55.0,30.14,West,267,4.0,10.0,90,0.00,,,0.05,weatherlink.com 1.10,2013-02-11 14:04:00,
2013-02-11 09:19:00,57.2,55.0,30.14,West,265,5.0,8.0,91,0.00,,,0.05,weatherlink.com 1.10,2013-02-11 14:19:00,
2013-02-11 09:35:00,57.2,55.0,30.14,WSW,238,8.0,12.0,92,0.00,,,0.05,weatherlink.com 1.10,2013-02-11 14:35:00,
2013-02-11 09:49:00,56.8,55.0,30.14,WSW,242,11.0,14.0,92,0.00,,,0.05,weatherlink.com 1.10,2013-02-11 14:49:00,
2013-02-11 10:04:00,56.6,54.0,30.13,WSW,238,10.0,13.0,92,0.00,,,0.05,weatherlink.com 1.10,2013-02-11 15:04:00,
2013-02-11 10:19:00,56.3,54.0,30.13,WSW,248,8.0,11.0,93,0.00,,,0.05,weatherlink.com 1.10,2013-02-11 15:19:00,
2013-02-11 10:35:00,56.2,54.0,30.13,WSW,257,4.0,10.0,93,0.00,,,0.05,weatherlink.com 1.10,2013-02-11 15:35:00,
2013-02-11 10:49:00,56.3,54.0,30.13,WNW,294,7.0,11.0,93,0.00,,,0.05,weatherlink.com 1.10,2013-02-11 15:49:00,
2013-02-11 11:05:00,56.1,54.0,30.12,WSW,256,2.0,11.0,94,0.00,,,0.05,weatherlink.com 1.10,2013-02-11 16:05:00,
2013-02-11 11:20:00,56.4,55.0,30.11,WSW,248,4.0,11.0,95,0.00,,,0.05,weatherlink.com 1.10,2013-02-11 16:20:00,
2013-02-11 11:34:00,57.0,56.0,30.11,WSW,253,6.0,16.0,95,0.00,,,0.05,weatherlink.com 1.10,2013-02-11 16:34:00,
2013-02-11 11:49:00,57.1,56.0,30.10,NW,309,6.0,17.0,96,0.00,,,0.05,weatherlink.com 1.10,2013-02-11 16:49:00,
2013-02-11 12:04:00,56.8,56.0,30.09,WSW,238,9.0,17.0,96,0.00,,,0.05,weatherlink.com 1.10,2013-02-11 17:04:00,
2013-02-11 12:19:00,57.2,56.0,30.09,WSW,244,10.0,14.0,96,0.01,,,0.06,weatherlink.com 1.10,2013-02-11 17:19:00,
2013-02-11 12:34:00,56.8,56.0,30.08,West,274,8.0,15.0,96,0.01,,,0.06,weatherlink.com 1.10,2013-02-11 17:34:00,
2013-02-11 12:50:00,56.7,56.0,30.07,WSW,240,8.0,13.0,96,0.01,,,0.06,weatherlink.com 1.10,2013-02-11 17:50:00,
2013-02-11 13:05:00,56.4,55.0,30.06,WSW,242,8.0,16.0,96,0.01,,,0.06,weatherlink.com 1.10,2013-02-11 18:05:00,
2013-02-11 13:20:00,57.1,56.0,30.04,WSW,256,15.0,15.0,97,0.00,,,0.06,weatherlink.com 1.10,2013-02-11 18:20:00,
2013-02-11 13:35:00,58.3,58.0,30.03,West,264,17.0,19.0,97,0.00,,,0.06,weatherlink.com 1.10,2013-02-11 18:35:00,
2013-02-11 13:50:00,57.7,57.0,30.02,WSW,240,13.0,21.0,96,0.01,,,0.07,weatherlink.com 1.10,2013-02-11 18:50:00,
2013-02-11 14:05:00,57.8,57.0,30.02,WSW,248,8.0,18.0,96,0.01,,,0.07,weatherlink.com 1.10,2013-02-11 19:05:00,
2013-02-11 14:20:00,57.7,57.0,30.01,SW,235,8.0,20.0,97,0.01,,,0.07,weatherlink.com 1.10,2013-02-11 19:20:00,
2013-02-11 14:35:00,58.0,57.0,30.03,West,279,9.0,16.0,97,0.01,,,0.07,weatherlink.com 1.10,2013-02-11 19:35:00,
2013-02-11 14:50:00,59.1,58.0,30.03,West,267,12.0,20.0,97,0.00,,,0.07,weatherlink.com 1.10,2013-02-11 19:50:00,
2013-02-11 15:05:00,59.0,58.0,30.03,West,259,5.0,20.0,96,0.00,,,0.07,weatherlink.com 1.10,2013-02-11 20:05:00,
2013-02-11 15:20:00,56.8,56.0,30.03,SW,232,13.0,15.0,97,0.00,,,0.07,weatherlink.com 1.10,2013-02-11 20:20:00,
2013-02-11 15:35:00,55.8,55.0,30.03,WSW,243,6.0,15.0,97,0.00,,,0.07,weatherlink.com 1.10,2013-02-11 20:35:00,
2013-02-11 15:50:00,55.9,55.0,30.03,WSW,255,6.0,11.0,97,0.00,,,0.07,weatherlink.com 1.10,2013-02-11 20:50:00,
2013-02-11 16:05:00,55.4,55.0,30.02,SW,228,7.0,14.0,97,0.00,,,0.07,weatherlink.com 1.10,2013-02-11 21:05:00,
2013-02-11 16:20:00,55.4,55.0,30.02,SW,221,8.0,10.0,97,0.00,,,0.07,weatherlink.com 1.10,2013-02-11 21:20:00,
2013-02-11 16:35:00,55.6,55.0,30.02,WSW,254,5.0,11.0,97,0.00,,,0.07,weatherlink.com 1.10,2013-02-11 21:35:00,
2013-02-11 16:50:00,55.9,55.0,30.01,West,272,7.0,11.0,96,0.00,,,0.07,weatherlink.com 1.10,2013-02-11 21:50:00,
2013-02-11 17:05:00,56.3,55.0,30.00,West,265,6.0,11.0,96,0.00,,,0.07,weatherlink.com 1.10,2013-02-11 22:05:00,
2013-02-11 17:20:00,56.0,55.0,30.00,West,266,8.0,11.0,95,0.00,,,0.07,weatherlink.com 1.10,2013-02-11 22:20:00,
2013-02-11 17:35:00,55.8,55.0,30.00,WSW,244,7.0,12.0,96,0.00,,,0.07,weatherlink.com 1.10,2013-02-11 22:35:00,
2013-02-11 17:50:00,56.6,56.0,30.00,WSW,248,8.0,14.0,96,0.00,,,0.07,weatherlink.com 1.10,2013-02-11 22:50:00,
2013-02-11 18:05:00,56.8,56.0,30.00,SW,232,3.0,15.0,96,0.00,,,0.07,weatherlink.com 1.10,2013-02-11 23:05:00,
2013-02-11 18:20:00,56.4,55.0,30.00,SW,217,5.0,16.0,96,0.00,,,0.07,weatherlink.com 1.10,2013-02-11 23:20:00,
2013-02-11 18:35:00,56.5,55.0,30.00,WNW,284,4.0,12.0,96,0.00,,,0.07,weatherlink.com 1.10,2013-02-11 23:35:00,
2013-02-11 18:50:00,56.9,56.0,30.00,WNW,286,6.0,12.0,96,0.00,,,0.07,weatherlink.com 1.10,2013-02-11 23:50:00,
2013-02-11 19:05:00,57.3,56.0,30.01,WSW,247,10.0,15.0,96,0.00,,,0.07,weatherlink.com 1.10,2013-02-12 00:05:00,
2013-02-11 19:20:00,56.0,55.0,30.01,WSW,246,10.0,14.0,96,0.00,,,0.07,weatherlink.com 1.10,2013-02-12 00:20:00,
2013-02-11 19:35:00,55.8,55.0,30.01,West,279,5.0,14.0,96,0.00,,,0.07,weatherlink.com 1.10,2013-02-12 00:35:00,
2013-02-11 19:50:00,56.8,56.0,30.01,West,276,8.0,13.0,96,0.00,,,0.07,weatherlink.com 1.10,2013-02-12 00:50:00,
2013-02-11 20:05:00,56.4,55.0,30.01,WSW,237,6.0,13.0,96,0.00,,,0.07,weatherlink.com 1.10,2013-02-12 01:05:00,
2013-02-11 20:20:00,56.9,56.0,30.00,WSW,242,7.0,15.0,96,0.00,,,0.07,weatherlink.com 1.10,2013-02-12 01:20:00,
2013-02-11 20:35:00,56.4,55.0,29.98,West,279,7.0,15.0,96,0.00,,,0.07,weatherlink.com 1.10,2013-02-12 01:35:00,
2013-02-11 20:50:00,57.2,56.0,29.98,West,259,9.0,16.0,96,0.00,,,0.07,weatherlink.com 1.10,2013-02-12 01:50:00,
2013-02-11 21:05:00,57.2,56.0,29.96,WSW,248,6.0,16.0,96,0.00,,,0.07,weatherlink.com 1.10,2013-02-12 02:05:00,
2013-02-11 21:20:00,57.4,56.0,29.96,West,267,15.0,21.0,96,0.00,,,0.07,weatherlink.com 1.10,2013-02-12 02:20:00,
2013-02-11 21:35:00,57.4,56.0,29.98,WNW,284,11.0,19.0,96,0.00,,,0.07,weatherlink.com 1.10,2013-02-12 02:35:00,
2013-02-11 21:50:00,57.2,56.0,29.98,West,265,9.0,17.0,96,0.00,,,0.07,weatherlink.com 1.10,2013-02-12 02:50:00,
2013-02-11 22:05:00,56.3,55.0,29.97,WSW,239,9.0,14.0,96,0.00,,,0.07,weatherlink.com 1.10,2013-02-12 03:05:00,
2013-02-11 22:20:00,56.8,56.0,29.98,West,279,5.0,15.0,97,0.00,,,0.07,weatherlink.com 1.10,2013-02-12 03:20:00,
2013-02-11 22:35:00,56.1,55.0,29.96,West,279,6.0,13.0,96,0.00,,,0.07,weatherlink.com 1.10,2013-02-12 03:35:00,
2013-02-11 22:50:00,57.2,56.0,29.99,WNW,290,6.0,11.0,97,0.00,,,0.07,weatherlink.com 1.10,2013-02-12 03:50:00,
2013-02-11 23:06:00,57.6,57.0,29.99,West,263,2.0,6.0,97,0.00,,,0.07,weatherlink.com 1.10,2013-02-12 04:06:00,
2013-02-11 23:20:00,58.6,58.0,29.98,WSW,251,5.0,7.0,97,0.00,,,0.07,weatherlink.com 1.10,2013-02-12 04:20:00,
2013-02-11 23:35:00,58.7,58.0,29.97,West,274,3.0,7.0,97,0.00,,,0.07,weatherlink.com 1.10,2013-02-12 04:35:00,
2013-02-11 23:50:00,59.3,59.0,29.97,WNW,286,2.0,8.0,97,0.00,,,0.07,weatherlink.com 1.10,2013-02-12 04:50:00,